Lid_Strength_Index
2 2 2 2 1 1 0 0 -0 -0 -1 -1 -1 -0 -0 -1 -0 1 4 3 4 9 8 10 10 10 9 8 12 11 11 11 12 15 16 16 17 16 17 15 15 14 16 17 15 17 18 9 10 12 10 11 11 11
3 3 3 3 2 2 2 1 1 0 -0 -0 0 0 1 1 1 1 5 5 5 9 9 8 9 8 9 8 9 9 10 12 9 14 15 15 18 15 15 17 11 15 12 15 13 14 9 10 10 9 10 10 11 11
4 4 3 3 3 3 2 2 2 1 1 0 0 1 1 1 2 1 6 6 7 10 10 10 11 9 7 7 6 11 10 7 9 7 12 14 17 13 18 14 13 11 9 11 11 10 10 10 9 8 8 9 10 11
4 4 4 4 4 4 3 3 3 2 2 2 2 2 1 1 2 3 6 6 7 10 11 11 8 11 9 8 9 8 8 8 8 9 13 14 15 11 12 11 11 11 11 10 10 10 9 9 9 12 11 10 12 13
5 4 4 4 4 4 4 4 4 4 3 3 3 3 2 3 3 6 7 7 8 9 12 11 10 10 10 9 9 10 10 9 10 11 11 12 11 11 11 11 12 9 10 12 12 10 10 9 13 14 14 13 14 14
5 5 5 4 5 4 4 4 4 4 4 3 4 3 3 3 4 5 9 8 8 8 10 12 11 16 17 12 10 10 11 10 10 10 10 11 9 10 12 13 10 10 12 11 9 14 13 14 14 14 15 16 16 15
6 5 5 5 5 5 5 4 5 5 4 4 4 4 3 4 6 9 9 10 8 9 10 13 12 13 18 14 11 10 10 10 10 11 11 11 11 10 13 14 13 13 16 16 17 15 15 15 15 17 17 18 18 19
6 6 5 5 5 6 5 5 5 5 5 5 4 4 4 4 6 10 10 8 8 10 13 13 13 14 17 14 13 12 11 12 11 12 12 13 13 13 14 13 15 17 17 18 18 18 18 18 18 18 18 18 19 20
7 6 6 6 6 6 6 6 6 6 6 5 4 4 8 10 12 14 9 10 12 13 16 18 18 18 17 17 15 13 14 15 15 14 17 17 15 15 15 17 17 18 17 19 20 20 21 21 20 20 19 20 20 22
7 7 6 6 7 7 6 6 6 7 8 7 8 14 16 15 10 10 14 16 17 18 18 19 24 20 19 18 14 19 13 16 20 21 21 21 19 18 19 21 19 19 18 19 20 20 20 21 20 20 20 20 20 21
7 7 7 6 7 8 7 7 7 8 9 13 16 16 14 12 15 18 20 20 22 22 22 24 25 22 20 23 23 19 21 20 21 23 24 21 20 17 21 22 22 21 20 20 20 21 21 21 20 21 21 21 21 22
7 7 7 7 8 8 7 7 8 13 17 17 17 16 17 18 20 21 23 24 24 21 26 24 24 23 23 21 24 23 24 24 25 27 26 26 17 22 24 24 25 25 23 23 23 23 22 22 21 21 21 22 23 23
7 7 7 7 9 8 8 8 9 12 14 17 18 20 20 21 24 25 26 24 26 27 27 29 27 24 25 23 26 26 27 25 27 28 25 20 21 25 27 30 30 32 30 29 28 28 27 27 25 25 25 24 24 25
7 7 7 7 9 8 8 9 12 15 19 20 22 23 22 24 23 21 21 22 27 26 27 26 29 26 27 27 27 28 28 29 28 29 25 22 23 27 29 32 32 32 33 32 32 32 32 32 31 30 28 28 28 28
7 7 7 9 9 8 9 13 16 19 20 22 22 25 24 25 28 31 33 30 30 26 26 27 27 22 27 27 27 28 28 29 25 23 21 21 26 27 31 32 31 34 32 34 35 35 35 36 35 34 35 33 32 31
7 8 12 10 9 11 14 18 20 21 24 24 25 26 32 28 28 32 31 28 28 26 27 26 27 27 27 26 28 27 26 25 21 21 20 24 27 29 30 29 29 31 32 34 34 35 36 37 35 35 37 36 35 34
7 12 10 9 10 15 16 20 20 24 23 25 26 31 29 27 26 27 27 27 25 26 23 23 26 23 27 28 27 22 23 20 20 22 21 22 23 26 27 29 31 30 30 29 31 34 34 36 37 36 35 36 37 36
11 11 9 11 14 17 21 22 23 24 24 25 26 29 32 33 32 31 32 29 28 25 24 23 24 26 26 24 21 19 22 23 23 23 22 23 25 27 26 26 27 28 28 29 29 32 34 33 35 33 32 32 36 35
10 11 11 13 14 20 23 24 24 24 25 29 30 31 34 35 36 34 34 33 32 30 29 27 25 25 21 19 20 22 22 22 22 23 24 24 23 25 26 27 26 28 27 29 30 29 28 29 30 29 27 29 30 31
8 11 12 14 16 20 23 25 26 25 26 30 31 33 33 35 36 36 34 33 31 31 31 29 24 19 19 20 22 23 22 23 24 24 22 23 26 27 26 26 24 25 26 27 28 26 27 28 28 27 28 26 28 28
12 13 16 17 21 20 23 26 26 29 32 31 32 32 34 36 36 35 34 32 33 30 28 23 21 21 23 26 27 27 25 24 23 21 21 20 26 25 26 25 26 26 26 26 25 25 25 24 25 26 25 25 27 28
14 13 17 18 21 24 26 28 26 28 28 34 33 35 34 35 34 34 34 34 31 27 25 26 26 26 26 27 27 28 26 26 26 27 26 26 27 25 24 24 26 25 24 23 22 22 22 23 25 25 25 26 25 26
14 16 20 20 22 25 29 28 27 28 26 31 35 34 34 34 36 35 35 31 28 25 28 30 30 32 30 31 31 29 29 29 27 27 26 25 23 24 25 26 25 24 23 22 21 21 23 23 24 25 25 25 25 25
16 19 21 23 22 27 30 28 27 28 28 30 32 33 34 36 37 37 34 29 27 30 32 32 34 32 33 33 31 30 29 29 28 28 27 26 27 27 27 26 26 23 21 21 23 25 25 25 24 25 25 25 25 25
17 20 22 25 28 30 30 29 29 28 27 29 30 31 35 38 34 35 33 28 29 30 31 34 34 32 31 31 30 31 32 29 29 28 28 28 27 27 25 23 22 23 24 24 24 25 25 25 25 25 25 25 25 25
20 20 23 24 30 28 27 27 28 28 28 29 29 35 35 33 34 31 30 29 29 30 31 31 31 33 32 31 29 27 28 27 26 25 27 27 27 24 23 22 22 24 25 25 24 23 24 25 26 26 26 25 23 23
21 23 28 31 27 26 27 27 25 26 28 28 30 32 30 30 30 27 27 28 27 29 29 28 26 27 26 27 28 29 29 30 28 27 29 30 29 29 28 26 25 26 27 26 26 26 26 26 26 26 26 27 26 25
21 25 26 29 28 25 25 26 26 26 24 25 27 29 26 25 23 23 25 28 29 28 29 29 28 27 28 28 29 28 30 31 30 29 30 31 32 33 32 31 28 21 26 26 26 27 27 27 28 29 30 31 31 31
24 27 26 29 27 26 25 24 23 22 22 24 24 23 22 21 22 22 25 27 27 27 26 27 27 30 30 30 30 30 30 29 27 28 29 29 28 28 29 29 28 28 29 29 24 24 27 29 31 32 32 32 32 33
27 26 26 27 25 26 24 23 23 27 27 26 26 24 24 23 24 25 25 26 26 26 27 27 28 28 28 28 27 27 30 31 30 28 27 27 27 30 31 31 31 32 32 33 29 28 20 27 26 31 31 31 31 31
27 26 25 25 25 28 30 30 29 28 28 27 29 26 25 26 25 28 29 29 29 29 29 29 29 29 27 26 26 27 26 31 33 33 33 33 33 32 32 32 32 35 36 34 32 31 30 30 32 32 31 30 29 27
28 25 25 25 29 31 30 28 28 27 28 28 27 29 27 26 24 26 31 31 29 29 28 30 29 28 29 31 32 33 28 31 33 31 30 28 30 31 33 34 36 35 32 30 30 29 30 30 30 30 29 29 29 28
28 27 26 28 30 29 30 28 28 28 28 27 27 27 27 27 25 28 30 32 32 33 33 33 32 33 32 31 32 32 31 32 28 21 22 23 25 28 34 35 34 32 29 29 29 29 28 28 29 29 29 29 29 29